Regional Weather Roundup
Issued by NWS

Home | Current Version | Previous Version | Text Only | Print | Product List | Glossary On
Versions: 1 2 3 4 5 6 7 8 9 10 11 12 13 14 15 16 17 18 19 20 21 22 23 24 25 26 27 28 29 30 31 32 33 34 35 36 37 38 39 40 41 42 43 44 45 46 47 48 49 50
243
ASUS44 KEWX 240003
RWRTX
SOUTH TEXAS REGIONAL WEATHER ROUNDUP
NATIONAL WEATHER SERVICE AUSTIN/SAN ANTONIO TX
700 PM CDT SUN APR 23 2017

NOTE: "FAIR" INDICATED FEW OR NO CLOUDS BELOW 12,000 FEET WITH NO
SIGNIFICANT WEATHER AND/OR OBSTRUCTIONS TO VISIBILITY.

* - THESE STATIONS ARE NOT NWS OR FAA STATIONS...AND ARE NOT SUBJECT
    TO NWS AND FAA QUALITY CONTROL.

TXZ171-172-183>190-240100-
TEXAS HILL COUNTRY AND EDWARDS PLATEAU

CITY           SKY/WX    TMP DP  RH WIND       PRES   REMARKS
JUNCTION       SUNNY     74  31  20 E9        30.02F
6HR MIN TEMP:  68; 6HR MAX TEMP:  77;

*LLANO         SUNNY     73  37  27 N3        30.05F
BURNET         SUNNY     72  35  25 N8        30.04F
6HR MIN TEMP:  69; 6HR MAX TEMP:  74;

*HORSESHOE BAY SUNNY     73  38  28 CALM      30.02F
6HR MIN TEMP:  69; 6HR MAX TEMP:  75;

*KERRVILLE     SUNNY     72  38  29 N7        30.03F
6HR MIN TEMP:  66; 6HR MAX TEMP:  73;

*FREDERICKSBRG SUNNY     69  35  28 NE3       30.04S
6HR MIN TEMP:  66; 6HR MAX TEMP:  71;

*ROCKSPRINGS   SUNNY     72  37  28 CALM      30.06F
*BOERNE STAGE  SUNNY     70  36  28 NE3       30.03S
*CASTROVILLE   SUNNY     76  37  23 N5        30.01F
HONDO          SUNNY     77  38  24 E3        30.00F
6HR MIN TEMP:  71; 6HR MAX TEMP:  79;

*UVALDE        SUNNY     74  42  31 CALM      30.01F
6HR MIN TEMP:  66; 6HR MAX TEMP:  74;

DEL RIO        NOT AVBL
LAUGHLIN AFB   SUNNY     75  44  33 S5        29.98F
6HR MIN TEMP:  69; 6HR MAX TEMP:  77;

CARRIZO SPRGS  SUNNY     73  41  31 NE6       29.99F
*EAGLE PASS    NOT AVBL
$$

TXZ173-191>194-202-209-217>225-228-240100-
CENTRAL AND SOUTH CENTRAL TEXAS

CITY           SKY/WX    TMP DP  RH WIND       PRES   REMARKS
GEORGETOWN     SUNNY     73  39  29 NE6       30.01F
AUSTIN/BERGSTM SUNNY     74  42  31 NE9       30.00S
6HR MIN TEMP:  72; 6HR MAX TEMP:  77;

AUSTIN/MABRY   SUNNY     73  41  31 MISG      30.01F
6HR MIN TEMP:  70; 6HR MAX TEMP:  77;

*AUSTIN/EXEC   SUNNY     72  41  33 NE8       30.02S
*LAGO VISTA    SUNNY     71  39  30 NE6       30.03S
6HR MIN TEMP:  69; 6HR MAX TEMP:  74;

SAN MARCOS     SUNNY     73  39  29 N10       30.01F
6HR MIN TEMP:  72; 6HR MAX TEMP:  75;

NEW BRAUNFELS  SUNNY     75  41  29 NE9       29.99F
6HR MIN TEMP:  73; 6HR MAX TEMP:  78;

RANDOLPH AFB   SUNNY     74  40  29 N8        30.00F
6HR MIN TEMP:  70; 6HR MAX TEMP:  76;

PT SAN ANTONIO SUNNY     75  40  27 N6        29.98F
6HR MIN TEMP:  71; 6HR MAX TEMP:  77;

SAN ANTONIO    SUNNY     75  41  29 NE7       30.00F
6HR MIN TEMP:  71; 6HR MAX TEMP:  77;

STINSON FIELD  SUNNY     77  39  25 NE3       29.98F
6HR MIN TEMP:  72; 6HR MAX TEMP:  79;

*LA GRANGE     SUNNY     72  46  38 N7        29.99S
6HR MIN TEMP:  69; 6HR MAX TEMP:  75;

*GIDDINGS      SUNNY     70  42  36 N6        30.02S
6HR MIN TEMP:  67; 6HR MAX TEMP:  72;

*GONZALES      SUNNY     73  46  38 N5        30.00F
6HR MIN TEMP:  71; 6HR MAX TEMP:  75;

$$

TXZ163>164-176>182-195>201-210>213-226-227-235-240100-
SOUTHEAST TEXAS

CITY           SKY/WX    TMP DP  RH WIND       PRES   REMARKS
COLLEGE STN    SUNNY     71  44  37 N13       30.00S
6HR MIN TEMP:  68; 6HR MAX TEMP:  74;

*BRYAN         SUNNY     69  45  41 N7        30.01F
6HR MIN TEMP:  67; 6HR MAX TEMP:  72;

*CALDWELL      NOT AVBL
*CROCKETT      SUNNY     68  45  42 N3        30.02S
*BRENHAM       SUNNY     72  45  38 N10       30.00S
6HR MIN TEMP:  68; 6HR MAX TEMP:  74;

HUNTSVILLE     SUNNY     70  42  36 N7        29.99F
6HR MIN TEMP:  66; 6HR MAX TEMP:  72;

CONROE         SUNNY     69  46  43 NW9       29.99S
6HR MIN TEMP:  66; 6HR MAX TEMP:  72;

HOUSTON BUSH   MOSUNNY   71  46  40 N13       29.98S
6HR MIN TEMP:  67; 6HR MAX TEMP:  74;

HOUSTON HOBBY  MOSUNNY   71  46  40 N14       29.97S
6HR MIN TEMP:  68; 6HR MAX TEMP:  73;

*HOUSTON SW AP SUNNY     70  47  44 N7        29.98S
6HR MIN TEMP:  67; 6HR MAX TEMP:  73;

PEARLAND       SUNNY     74  45  35 N13       29.98S
6HR MIN TEMP:  69; 6HR MAX TEMP:  75;

HOUSTON HOOKS  SUNNY     71  45  39 N7G18     29.98S
6HR MIN TEMP:  67; 6HR MAX TEMP:  73;

ELLINGTON FLD  MOSUNNY   72  46  40 N12       29.99S
SUGAR LAND     SUNNY     71  45  39 N16       29.97S
6HR MIN TEMP:  69; 6HR MAX TEMP:  74;

*HOUSTON EXEC  SUNNY     70  45  40 N10       30.00S
*CLEVELAND MUN SUNNY     70  49  47 N7        29.99S
6HR MIN TEMP:  65; 6HR MAX TEMP:  73;

*WHARTON       SUNNY     70  41  34 N9        29.99F
6HR MIN TEMP:  68; 6HR MAX TEMP:  73;

*COLUMBUS      FAIR      71  41  34 N9        30.00F
*EAGLE LAKE    CLEAR     72  47  41 N10       29.99S
6HR MIN TEMP:  69; 6HR MAX TEMP:  74;

$$

TXZ214>216-236>238-240100-
THE UPPER TEXAS COAST

CITY           SKY/WX    TMP DP  RH WIND       PRES   REMARKS
*ORANGE        CLEAR     67  50  54 N7        29.98S
6HR MIN TEMP:  66; 6HR MAX TEMP:  70;

PORT ARTHUR    PTCLDY    69  49  48 N12       29.96S
6HR MIN TEMP:  68; 6HR MAX TEMP:  75;

GALVESTON      SUNNY     72  52  49 N14       29.97S
6HR MIN TEMP:  69; 6HR MAX TEMP:  75;

ANGLETON       SUNNY     72  49  44 N12       29.97S
6HR MIN TEMP:  69; 6HR MAX TEMP:  75;

*BAY CITY      SUNNY     72  48  42 N9        29.98S
PALACIOS       SUNNY     73  44  35 N15G22    29.98S
6HR MIN TEMP:  71; 6HR MAX TEMP:  76;

$$

TXZ229>234-239>247-240100-
TEXAS COASTAL BEND AND RIO GRANDE PLAINS

CITY           SKY/WX    TMP DP  RH WIND       PRES   REMARKS
VICTORIA       SUNNY     73  43  33 N15       29.99F
6HR MIN TEMP:  72; 6HR MAX TEMP:  77;

*BEEVILLE      SUNNY     76  44  32 NE9       29.99S
6HR MIN TEMP:  72; 6HR MAX TEMP:  78;

ROCKPORT       SUNNY     76  42  29 N10       29.98S
6HR MIN TEMP:  74; 6HR MAX TEMP:  81;

*PORT ARANSAS  SUNNY     75  44  33 N12G17    29.97F
6HR MIN TEMP:  70; 6HR MAX TEMP:  77;

*PORT LAVACA   SUNNY     73  49  42 N6        29.99F
6HR MIN TEMP:  70; 6HR MAX TEMP:  75;

*INGLESIDE     SUNNY     78  42  27 N13       29.97S
CORPUS CHRISTI SUNNY     76  44  32 N12       29.97F
6HR MIN TEMP:  71; 6HR MAX TEMP:  78;

CORPUS NAS     SUNNY     79  44  28 N13       29.97F
6HR MIN TEMP:  74; 6HR MAX TEMP:  80;

*ROBSTOWN      SUNNY     78  41  26 NE7       29.98S
6HR MIN TEMP:  72; 6HR MAX TEMP:  80;

ALICE          SUNNY     78  39  24 N7        29.97F
6HR MIN TEMP:  73; 6HR MAX TEMP:  80;

KINGSVILLE NAS SUNNY     78  44  29 N6        29.98S
6HR MIN TEMP:  72; 6HR MAX TEMP:  80;

COTULLA        SUNNY     77  38  24 N8        29.99F
6HR MIN TEMP:  72; 6HR MAX TEMP:  79;

*FAITH RANCH   SUNNY     79  36  21 VRB5      29.99F
LAREDO         SUNNY     77  41  27 N9        29.99F
6HR MIN TEMP:  72; 6HR MAX TEMP:  79;

$$

TXZ248>255-240100-
DEEP SOUTH TEXAS

CITY           SKY/WX    TMP DP  RH WIND       PRES   REMARKS
BROWNSVILLE    SUNNY     74  50  42 NE13      30.00S
6HR MIN TEMP:  69; 6HR MAX TEMP:  79;

PORT ISABEL    SUNNY     73  51  46 NE7       30.00S
6HR MIN TEMP:  70; 6HR MAX TEMP:  77;

*SOUTH PADRE   NOT AVBL
HARLINGEN      SUNNY     77  43  29 N5        29.98F
6HR MIN T



USA.gov is the U.S. government's official web portal to all federal, state and local government web resources and services.